Index of /20260430/WXO-DD/model_gdps/15km/00/240
Name Last modified Size Description
Parent Directory -
20260430T00Z_MSC_GDPS_AbsoluteVorticity_IsbL-0200_LatLon0.15_PT240H.grib2 2026-04-30 04:45 1.4M
20260430T00Z_MSC_GDPS_AbsoluteVorticity_IsbL-0250_LatLon0.15_PT240H.grib2 2026-04-30 04:45 1.3M
20260430T00Z_MSC_GDPS_AbsoluteVorticity_IsbL-0500_LatLon0.15_PT240H.grib2 2026-04-30 04:45 1.5M
20260430T00Z_MSC_GDPS_AbsoluteVorticity_IsbL-0700_LatLon0.15_PT240H.grib2 2026-04-30 04:45 1.3M
20260430T00Z_MSC_GDPS_AbsoluteVorticity_IsbL-0850_LatLon0.15_PT240H.grib2 2026-04-30 04:45 1.6M
20260430T00Z_MSC_GDPS_AirTemp-Max_AGL-2m_LatLon0.15_PT240H.grib2 2026-04-30 04:45 748K
20260430T00Z_MSC_GDPS_AirTemp-Min_AGL-2m_LatLon0.15_PT240H.grib2 2026-04-30 04:45 799K
20260430T00Z_MSC_GDPS_AirTemp_AGL-120m_LatLon0.15_PT240H.grib2 2026-04-30 04:45 913K
20260430T00Z_MSC_GDPS_AirTemp_AGL-2m_LatLon0.15_PT240H.grib2 2026-04-30 04:45 1.0M
20260430T00Z_MSC_GDPS_AirTemp_AGL-40m_LatLon0.15_PT240H.grib2 2026-04-30 04:45 937K
20260430T00Z_MSC_GDPS_AirTemp_AGL-80m_LatLon0.15_PT240H.grib2 2026-04-30 04:45 924K
20260430T00Z_MSC_GDPS_AirTemp_IsbL-0001_LatLon0.15_PT240H.grib2 2026-04-30 04:45 656K
20260430T00Z_MSC_GDPS_AirTemp_IsbL-0005_LatLon0.15_PT240H.grib2 2026-04-30 04:45 690K
20260430T00Z_MSC_GDPS_AirTemp_IsbL-0010_LatLon0.15_PT240H.grib2 2026-04-30 04:45 695K
20260430T00Z_MSC_GDPS_AirTemp_IsbL-0020_LatLon0.15_PT240H.grib2 2026-04-30 04:45 782K
20260430T00Z_MSC_GDPS_AirTemp_IsbL-0030_LatLon0.15_PT240H.grib2 2026-04-30 04:45 830K
20260430T00Z_MSC_GDPS_AirTemp_IsbL-0050_LatLon0.15_PT240H.grib2 2026-04-30 04:45 875K
20260430T00Z_MSC_GDPS_AirTemp_IsbL-0100_LatLon0.15_PT240H.grib2 2026-04-30 04:45 964K
20260430T00Z_MSC_GDPS_AirTemp_IsbL-0150_LatLon0.15_PT240H.grib2 2026-04-30 04:45 1.0M
20260430T00Z_MSC_GDPS_AirTemp_IsbL-0175_LatLon0.15_PT240H.grib2 2026-04-30 04:45 951K
20260430T00Z_MSC_GDPS_AirTemp_IsbL-0200_LatLon0.15_PT240H.grib2 2026-04-30 04:45 1.0M
20260430T00Z_MSC_GDPS_AirTemp_IsbL-0225_LatLon0.15_PT240H.grib2 2026-04-30 04:45 960K
20260430T00Z_MSC_GDPS_AirTemp_IsbL-0250_LatLon0.15_PT240H.grib2 2026-04-30 04:45 1.0M
20260430T00Z_MSC_GDPS_AirTemp_IsbL-0275_LatLon0.15_PT240H.grib2 2026-04-30 04:45 1.0M
20260430T00Z_MSC_GDPS_AirTemp_IsbL-0300_LatLon0.15_PT240H.grib2 2026-04-30 04:45 1.0M
20260430T00Z_MSC_GDPS_AirTemp_IsbL-0350_LatLon0.15_PT240H.grib2 2026-04-30 04:45 926K
20260430T00Z_MSC_GDPS_AirTemp_IsbL-0400_LatLon0.15_PT240H.grib2 2026-04-30 04:45 941K
20260430T00Z_MSC_GDPS_AirTemp_IsbL-0450_LatLon0.15_PT240H.grib2 2026-04-30 04:45 963K
20260430T00Z_MSC_GDPS_AirTemp_IsbL-0500_LatLon0.15_PT240H.grib2 2026-04-30 04:45 1.0M
20260430T00Z_MSC_GDPS_AirTemp_IsbL-0550_LatLon0.15_PT240H.grib2 2026-04-30 04:45 798K
20260430T00Z_MSC_GDPS_AirTemp_IsbL-0600_LatLon0.15_PT240H.grib2 2026-04-30 04:45 889K
20260430T00Z_MSC_GDPS_AirTemp_IsbL-0650_LatLon0.15_PT240H.grib2 2026-04-30 04:45 914K
20260430T00Z_MSC_GDPS_AirTemp_IsbL-0700_LatLon0.15_PT240H.grib2 2026-04-30 04:45 948K
20260430T00Z_MSC_GDPS_AirTemp_IsbL-0750_LatLon0.15_PT240H.grib2 2026-04-30 04:45 1.0M
20260430T00Z_MSC_GDPS_AirTemp_IsbL-0800_LatLon0.15_PT240H.grib2 2026-04-30 04:45 1.1M
20260430T00Z_MSC_GDPS_AirTemp_IsbL-0850_LatLon0.15_PT240H.grib2 2026-04-30 04:45 1.1M
20260430T00Z_MSC_GDPS_AirTemp_IsbL-0875_LatLon0.15_PT240H.grib2 2026-04-30 04:45 1.1M
20260430T00Z_MSC_GDPS_AirTemp_IsbL-0900_LatLon0.15_PT240H.grib2 2026-04-30 04:45 1.1M
20260430T00Z_MSC_GDPS_AirTemp_IsbL-0925_LatLon0.15_PT240H.grib2 2026-04-30 04:45 1.1M
20260430T00Z_MSC_GDPS_AirTemp_IsbL-0950_LatLon0.15_PT240H.grib2 2026-04-30 04:45 1.1M
20260430T00Z_MSC_GDPS_AirTemp_IsbL-0970_LatLon0.15_PT240H.grib2 2026-04-30 04:45 1.1M
20260430T00Z_MSC_GDPS_AirTemp_IsbL-0985_LatLon0.15_PT240H.grib2 2026-04-30 04:45 1.1M
20260430T00Z_MSC_GDPS_AirTemp_IsbL-1000_LatLon0.15_PT240H.grib2 2026-04-30 04:45 1.1M
20260430T00Z_MSC_GDPS_AirTemp_IsbL-1015_LatLon0.15_PT240H.grib2 2026-04-30 04:45 1.1M
20260430T00Z_MSC_GDPS_Albedo_Sfc_LatLon0.15_PT240H.grib2 2026-04-30 04:45 242K
20260430T00Z_MSC_GDPS_CAPE_Sfc_LatLon0.15_PT240H.grib2 2026-04-30 04:45 3.9M
20260430T00Z_MSC_GDPS_CIN_Sfc_LatLon0.15_PT240H.grib2 2026-04-30 04:45 2.8M
20260430T00Z_MSC_GDPS_CloudWater_EAtm_LatLon0.15_PT240H.grib2 2026-04-30 04:45 540K
20260430T00Z_MSC_GDPS_ConvectivePrecip-Accum_Sfc_LatLon0.15_PT240H.grib2 2026-04-30 04:45 3.8M
20260430T00Z_MSC_GDPS_DewPointDepression_AGL-2m_LatLon0.15_PT240H.grib2 2026-04-30 04:45 762K
20260430T00Z_MSC_GDPS_DewPointDepression_IsbL-0010_LatLon0.15_PT240H.grib2 2026-04-30 04:45 74K
20260430T00Z_MSC_GDPS_DewPointDepression_IsbL-0020_LatLon0.15_PT240H.grib2 2026-04-30 04:45 75K
20260430T00Z_MSC_GDPS_DewPointDepression_IsbL-0030_LatLon0.15_PT240H.grib2 2026-04-30 04:45 89K
20260430T00Z_MSC_GDPS_DewPointDepression_IsbL-0050_LatLon0.15_PT240H.grib2 2026-04-30 04:45 381K
20260430T00Z_MSC_GDPS_DewPointDepression_IsbL-0100_LatLon0.15_PT240H.grib2 2026-04-30 04:45 396K
20260430T00Z_MSC_GDPS_DewPointDepression_IsbL-0150_LatLon0.15_PT240H.grib2 2026-04-30 04:45 504K
20260430T00Z_MSC_GDPS_DewPointDepression_IsbL-0175_LatLon0.15_PT240H.grib2 2026-04-30 04:45 588K
20260430T00Z_MSC_GDPS_DewPointDepression_IsbL-0200_LatLon0.15_PT240H.grib2 2026-04-30 04:45 686K
20260430T00Z_MSC_GDPS_DewPointDepression_IsbL-0225_LatLon0.15_PT240H.grib2 2026-04-30 04:45 774K
20260430T00Z_MSC_GDPS_DewPointDepression_IsbL-0250_LatLon0.15_PT240H.grib2 2026-04-30 04:45 867K
20260430T00Z_MSC_GDPS_DewPointDepression_IsbL-0275_LatLon0.15_PT240H.grib2 2026-04-30 04:45 884K
20260430T00Z_MSC_GDPS_DewPointDepression_IsbL-0300_LatLon0.15_PT240H.grib2 2026-04-30 04:45 933K
20260430T00Z_MSC_GDPS_DewPointDepression_IsbL-0350_LatLon0.15_PT240H.grib2 2026-04-30 04:45 970K
20260430T00Z_MSC_GDPS_DewPointDepression_IsbL-0400_LatLon0.15_PT240H.grib2 2026-04-30 04:45 1.0M
20260430T00Z_MSC_GDPS_DewPointDepression_IsbL-0450_LatLon0.15_PT240H.grib2 2026-04-30 04:45 1.0M
20260430T00Z_MSC_GDPS_DewPointDepression_IsbL-0500_LatLon0.15_PT240H.grib2 2026-04-30 04:45 1.0M
20260430T00Z_MSC_GDPS_DewPointDepression_IsbL-0550_LatLon0.15_PT240H.grib2 2026-04-30 04:45 1.0M
20260430T00Z_MSC_GDPS_DewPointDepression_IsbL-0600_LatLon0.15_PT240H.grib2 2026-04-30 04:45 1.1M
20260430T00Z_MSC_GDPS_DewPointDepression_IsbL-0650_LatLon0.15_PT240H.grib2 2026-04-30 04:45 1.1M
20260430T00Z_MSC_GDPS_DewPointDepression_IsbL-0700_LatLon0.15_PT240H.grib2 2026-04-30 04:45 1.1M
20260430T00Z_MSC_GDPS_DewPointDepression_IsbL-0750_LatLon0.15_PT240H.grib2 2026-04-30 04:45 1.1M
20260430T00Z_MSC_GDPS_DewPointDepression_IsbL-0800_LatLon0.15_PT240H.grib2 2026-04-30 04:45 1.2M
20260430T00Z_MSC_GDPS_DewPointDepression_IsbL-0850_LatLon0.15_PT240H.grib2 2026-04-30 04:45 1.2M
20260430T00Z_MSC_GDPS_DewPointDepression_IsbL-0875_LatLon0.15_PT240H.grib2 2026-04-30 04:45 1.1M
20260430T00Z_MSC_GDPS_DewPointDepression_IsbL-0900_LatLon0.15_PT240H.grib2 2026-04-30 04:45 1.1M
20260430T00Z_MSC_GDPS_DewPointDepression_IsbL-0925_LatLon0.15_PT240H.grib2 2026-04-30 04:45 1.0M
20260430T00Z_MSC_GDPS_DewPointDepression_IsbL-0950_LatLon0.15_PT240H.grib2 2026-04-30 04:45 1.0M
20260430T00Z_MSC_GDPS_DewPointDepression_IsbL-0970_LatLon0.15_PT240H.grib2 2026-04-30 04:45 1.0M
20260430T00Z_MSC_GDPS_DewPointDepression_IsbL-0985_LatLon0.15_PT240H.grib2 2026-04-30 04:45 1.0M
20260430T00Z_MSC_GDPS_DewPointDepression_IsbL-1000_LatLon0.15_PT240H.grib2 2026-04-30 04:45 959K
20260430T00Z_MSC_GDPS_DewPointDepression_IsbL-1015_LatLon0.15_PT240H.grib2 2026-04-30 04:45 903K
20260430T00Z_MSC_GDPS_DewPoint_AGL-2m_LatLon0.15_PT240H.grib2 2026-04-30 04:45 604K
20260430T00Z_MSC_GDPS_DownwardLongwaveRadiationFlux-Accum_Sfc_LatLon0.15_PT240H.grib2 2026-04-30 04:45 745K
20260430T00Z_MSC_GDPS_DownwardShortwaveRadiationFlux-Accum_NTAtm_LatLon0.15_PT240H.grib2 2026-04-30 04:45 239K
20260430T00Z_MSC_GDPS_DownwardShortwaveRadiationFlux-Accum_Sfc_LatLon0.15_PT240H.grib2 2026-04-30 04:45 918K
20260430T00Z_MSC_GDPS_FreezingRain-Accum12h_Sfc_LatLon0.15_PT240H.grib2 2026-04-30 04:45 104K
20260430T00Z_MSC_GDPS_FreezingRain-Accum24h_Sfc_LatLon0.15_PT240H.grib2 2026-04-30 04:45 132K
20260430T00Z_MSC_GDPS_FreezingRain-Accum6h_Sfc_LatLon0.15_PT240H.grib2 2026-04-30 04:45 66K
20260430T00Z_MSC_GDPS_FreezingRain-Accum_Sfc_LatLon0.15_PT240H.grib2 2026-04-30 04:45 420K
20260430T00Z_MSC_GDPS_GeopotentialHeight_IsbL-0001_LatLon0.15_PT240H.grib2 2026-04-30 04:45 429K
20260430T00Z_MSC_GDPS_GeopotentialHeight_IsbL-0005_LatLon0.15_PT240H.grib2 2026-04-30 04:45 485K
20260430T00Z_MSC_GDPS_GeopotentialHeight_IsbL-0010_LatLon0.15_PT240H.grib2 2026-04-30 04:45 472K
20260430T00Z_MSC_GDPS_GeopotentialHeight_IsbL-0020_LatLon0.15_PT240H.grib2 2026-04-30 04:45 405K
20260430T00Z_MSC_GDPS_GeopotentialHeight_IsbL-0030_LatLon0.15_PT240H.grib2 2026-04-30 04:45 411K
20260430T00Z_MSC_GDPS_GeopotentialHeight_IsbL-0050_LatLon0.15_PT240H.grib2 2026-04-30 04:45 569K
20260430T00Z_MSC_GDPS_GeopotentialHeight_IsbL-0100_LatLon0.15_PT240H.grib2 2026-04-30 04:45 615K
20260430T00Z_MSC_GDPS_GeopotentialHeight_IsbL-0150_LatLon0.15_PT240H.grib2 2026-04-30 04:45 633K
20260430T00Z_MSC_GDPS_GeopotentialHeight_IsbL-0175_LatLon0.15_PT240H.grib2 2026-04-30 04:45 636K
20260430T00Z_MSC_GDPS_GeopotentialHeight_IsbL-0200_LatLon0.15_PT240H.grib2 2026-04-30 04:45 639K
20260430T00Z_MSC_GDPS_GeopotentialHeight_IsbL-0225_LatLon0.15_PT240H.grib2 2026-04-30 04:45 643K
20260430T00Z_MSC_GDPS_GeopotentialHeight_IsbL-0250_LatLon0.15_PT240H.grib2 2026-04-30 04:45 645K
20260430T00Z_MSC_GDPS_GeopotentialHeight_IsbL-0275_LatLon0.15_PT240H.grib2 2026-04-30 04:45 643K
20260430T00Z_MSC_GDPS_GeopotentialHeight_IsbL-0300_LatLon0.15_PT240H.grib2 2026-04-30 04:45 640K
20260430T00Z_MSC_GDPS_GeopotentialHeight_IsbL-0350_LatLon0.15_PT240H.grib2 2026-04-30 04:45 632K
20260430T00Z_MSC_GDPS_GeopotentialHeight_IsbL-0400_LatLon0.15_PT240H.grib2 2026-04-30 04:45 622K
20260430T00Z_MSC_GDPS_GeopotentialHeight_IsbL-0450_LatLon0.15_PT240H.grib2 2026-04-30 04:45 613K
20260430T00Z_MSC_GDPS_GeopotentialHeight_IsbL-0500_LatLon0.15_PT240H.grib2 2026-04-30 04:45 534K
20260430T00Z_MSC_GDPS_GeopotentialHeight_IsbL-0550_LatLon0.15_PT240H.grib2 2026-04-30 04:45 525K
20260430T00Z_MSC_GDPS_GeopotentialHeight_IsbL-0600_LatLon0.15_PT240H.grib2 2026-04-30 04:45 523K
20260430T00Z_MSC_GDPS_GeopotentialHeight_IsbL-0650_LatLon0.15_PT240H.grib2 2026-04-30 04:45 688K
20260430T00Z_MSC_GDPS_GeopotentialHeight_IsbL-0700_LatLon0.15_PT240H.grib2 2026-04-30 04:45 684K
20260430T00Z_MSC_GDPS_GeopotentialHeight_IsbL-0750_LatLon0.15_PT240H.grib2 2026-04-30 04:45 695K
20260430T00Z_MSC_GDPS_GeopotentialHeight_IsbL-0800_LatLon0.15_PT240H.grib2 2026-04-30 04:45 706K
20260430T00Z_MSC_GDPS_GeopotentialHeight_IsbL-0850_LatLon0.15_PT240H.grib2 2026-04-30 04:45 711K
20260430T00Z_MSC_GDPS_GeopotentialHeight_IsbL-0875_LatLon0.15_PT240H.grib2 2026-04-30 04:45 721K
20260430T00Z_MSC_GDPS_GeopotentialHeight_IsbL-0900_LatLon0.15_PT240H.grib2 2026-04-30 04:45 725K
20260430T00Z_MSC_GDPS_GeopotentialHeight_IsbL-0925_LatLon0.15_PT240H.grib2 2026-04-30 04:45 731K
20260430T00Z_MSC_GDPS_GeopotentialHeight_IsbL-0950_LatLon0.15_PT240H.grib2 2026-04-30 04:45 742K
20260430T00Z_MSC_GDPS_GeopotentialHeight_IsbL-0970_LatLon0.15_PT240H.grib2 2026-04-30 04:45 751K
20260430T00Z_MSC_GDPS_GeopotentialHeight_IsbL-0985_LatLon0.15_PT240H.grib2 2026-04-30 04:45 766K
20260430T00Z_MSC_GDPS_GeopotentialHeight_IsbL-1000_LatLon0.15_PT240H.grib2 2026-04-30 04:45 787K
20260430T00Z_MSC_GDPS_GeopotentialHeight_IsbL-1015_LatLon0.15_PT240H.grib2 2026-04-30 04:45 810K
20260430T00Z_MSC_GDPS_Humidex_Sfc_LatLon0.15_PT240H.grib2 2026-04-30 04:45 5.3M
20260430T00Z_MSC_GDPS_IcePellets-Accum12h_Sfc_LatLon0.15_PT240H.grib2 2026-04-30 04:45 33K
20260430T00Z_MSC_GDPS_IcePellets-Accum24h_Sfc_LatLon0.15_PT240H.grib2 2026-04-30 04:45 42K
20260430T00Z_MSC_GDPS_IcePellets-Accum6h_Sfc_LatLon0.15_PT240H.grib2 2026-04-30 04:45 26K
20260430T00Z_MSC_GDPS_IcePellets-Accum_Sfc_LatLon0.15_PT240H.grib2 2026-04-30 04:45 159K
20260430T00Z_MSC_GDPS_KIndex_Sfc_LatLon0.15_PT240H.grib2 2026-04-30 04:45 6.5M
20260430T00Z_MSC_GDPS_LatentHeatNetFlux_Sfc_LatLon0.15_PT240H.grib2 2026-04-30 04:45 672K
20260430T00Z_MSC_GDPS_LiftedIndex-MU-VT_IsbL-0500_LatLon0.15_PT240H.grib2 2026-04-30 04:45 5.3M
20260430T00Z_MSC_GDPS_NetLongwaveRadiationFlux-Accum_Sfc_LatLon0.15_PT240H.grib2 2026-04-30 04:45 972K
20260430T00Z_MSC_GDPS_NetShortwaveRadiationFlux-Accum_Sfc_LatLon0.15_PT240H.grib2 2026-04-30 04:45 917K
20260430T00Z_MSC_GDPS_O3MixingRatio_Sfc_LatLon0.15_PT240H.grib2 2026-04-30 04:52 2.3M
20260430T00Z_MSC_GDPS_O3_EAtm_LatLon0.15_PT240H.grib2 2026-04-30 04:52 2.4M
20260430T00Z_MSC_GDPS_PlanetaryBoundaryLayerHeight_Sfc_LatLon0.15_PT240H.grib2 2026-04-30 04:45 2.4M
20260430T00Z_MSC_GDPS_Precip-Accum12h_Sfc_LatLon0.15_PT240H.grib2 2026-04-30 04:45 4.1M
20260430T00Z_MSC_GDPS_Precip-Accum24h_Sfc_LatLon0.15_PT240H.grib2 2026-04-30 04:45 4.6M
20260430T00Z_MSC_GDPS_Precip-Accum6h_Sfc_LatLon0.15_PT240H.grib2 2026-04-30 04:45 4.0M
20260430T00Z_MSC_GDPS_Precip-Accum_Sfc_LatLon0.15_PT240H.grib2 2026-04-30 04:45 5.2M
20260430T00Z_MSC_GDPS_PrecipRate_Sfc_LatLon0.15_PT240H.grib2 2026-04-30 04:45 3.2M
20260430T00Z_MSC_GDPS_PrecipType-Instant_Sfc_LatLon0.15_PT240H.grib2 2026-04-30 04:45 1.6M
20260430T00Z_MSC_GDPS_Pressure_MSL_LatLon0.15_PT240H.grib2 2026-04-30 04:45 822K
20260430T00Z_MSC_GDPS_Pressure_PVU-1.5_LatLon0.15_PT240H.grib2 2026-04-30 04:45 5.8M
20260430T00Z_MSC_GDPS_Pressure_PVU-1_LatLon0.15_PT240H.grib2 2026-04-30 04:45 6.0M
20260430T00Z_MSC_GDPS_Pressure_PVU-2_LatLon0.15_PT240H.grib2 2026-04-30 04:45 5.6M
20260430T00Z_MSC_GDPS_Pressure_Sfc_LatLon0.15_PT240H.grib2 2026-04-30 04:45 1.1M
20260430T00Z_MSC_GDPS_RadiativeTemp_Sfc_LatLon0.15_PT240H.grib2 2026-04-30 04:45 664K
20260430T00Z_MSC_GDPS_Rain-Accum12h_Sfc_LatLon0.15_PT240H.grib2 2026-04-30 04:45 2.8M
20260430T00Z_MSC_GDPS_Rain-Accum24h_Sfc_LatLon0.15_PT240H.grib2 2026-04-30 04:45 3.2M
20260430T00Z_MSC_GDPS_Rain-Accum6h_Sfc_LatLon0.15_PT240H.grib2 2026-04-30 04:45 2.5M
20260430T00Z_MSC_GDPS_Rain-Accum_Sfc_LatLon0.15_PT240H.grib2 2026-04-30 04:45 4.1M
20260430T00Z_MSC_GDPS_RelativeHumidity_AGL-2m_LatLon0.15_PT240H.grib2 2026-04-30 04:45 1.0M
20260430T00Z_MSC_GDPS_RelativeHumidity_IsbL-0010_LatLon0.15_PT240H.grib2 2026-04-30 04:45 125K
20260430T00Z_MSC_GDPS_RelativeHumidity_IsbL-0020_LatLon0.15_PT240H.grib2 2026-04-30 04:45 152K
20260430T00Z_MSC_GDPS_RelativeHumidity_IsbL-0030_LatLon0.15_PT240H.grib2 2026-04-30 04:45 181K
20260430T00Z_MSC_GDPS_RelativeHumidity_IsbL-0050_LatLon0.15_PT240H.grib2 2026-04-30 04:45 330K
20260430T00Z_MSC_GDPS_RelativeHumidity_IsbL-0100_LatLon0.15_PT240H.grib2 2026-04-30 04:45 495K
20260430T00Z_MSC_GDPS_RelativeHumidity_IsbL-0150_LatLon0.15_PT240H.grib2 2026-04-30 04:45 687K
20260430T00Z_MSC_GDPS_RelativeHumidity_IsbL-0175_LatLon0.15_PT240H.grib2 2026-04-30 04:45 804K
20260430T00Z_MSC_GDPS_RelativeHumidity_IsbL-0200_LatLon0.15_PT240H.grib2 2026-04-30 04:45 708K
20260430T00Z_MSC_GDPS_RelativeHumidity_IsbL-0225_LatLon0.15_PT240H.grib2 2026-04-30 04:45 787K
20260430T00Z_MSC_GDPS_RelativeHumidity_IsbL-0250_LatLon0.15_PT240H.grib2 2026-04-30 04:45 864K
20260430T00Z_MSC_GDPS_RelativeHumidity_IsbL-0275_LatLon0.15_PT240H.grib2 2026-04-30 04:45 887K
20260430T00Z_MSC_GDPS_RelativeHumidity_IsbL-0300_LatLon0.15_PT240H.grib2 2026-04-30 04:45 930K
20260430T00Z_MSC_GDPS_RelativeHumidity_IsbL-0350_LatLon0.15_PT240H.grib2 2026-04-30 04:45 951K
20260430T00Z_MSC_GDPS_RelativeHumidity_IsbL-0400_LatLon0.15_PT240H.grib2 2026-04-30 04:45 1.0M
20260430T00Z_MSC_GDPS_RelativeHumidity_IsbL-0450_LatLon0.15_PT240H.grib2 2026-04-30 04:45 1.0M
20260430T00Z_MSC_GDPS_RelativeHumidity_IsbL-0500_LatLon0.15_PT240H.grib2 2026-04-30 04:45 1.0M
20260430T00Z_MSC_GDPS_RelativeHumidity_IsbL-0550_LatLon0.15_PT240H.grib2 2026-04-30 04:45 1.0M
20260430T00Z_MSC_GDPS_RelativeHumidity_IsbL-0600_LatLon0.15_PT240H.grib2 2026-04-30 04:45 1.0M
20260430T00Z_MSC_GDPS_RelativeHumidity_IsbL-0650_LatLon0.15_PT240H.grib2 2026-04-30 04:45 1.1M
20260430T00Z_MSC_GDPS_RelativeHumidity_IsbL-0700_LatLon0.15_PT240H.grib2 2026-04-30 04:45 1.1M
20260430T00Z_MSC_GDPS_RelativeHumidity_IsbL-0750_LatLon0.15_PT240H.grib2 2026-04-30 04:45 1.2M
20260430T00Z_MSC_GDPS_RelativeHumidity_IsbL-0800_LatLon0.15_PT240H.grib2 2026-04-30 04:45 1.2M
20260430T00Z_MSC_GDPS_RelativeHumidity_IsbL-0850_LatLon0.15_PT240H.grib2 2026-04-30 04:45 1.3M
20260430T00Z_MSC_GDPS_RelativeHumidity_IsbL-0875_LatLon0.15_PT240H.grib2 2026-04-30 04:45 1.3M
20260430T00Z_MSC_GDPS_RelativeHumidity_IsbL-0900_LatLon0.15_PT240H.grib2 2026-04-30 04:45 1.2M
20260430T00Z_MSC_GDPS_RelativeHumidity_IsbL-0925_LatLon0.15_PT240H.grib2 2026-04-30 04:45 1.2M
20260430T00Z_MSC_GDPS_RelativeHumidity_IsbL-0950_LatLon0.15_PT240H.grib2 2026-04-30 04:45 1.2M
20260430T00Z_MSC_GDPS_RelativeHumidity_IsbL-0970_LatLon0.15_PT240H.grib2 2026-04-30 04:45 1.2M
20260430T00Z_MSC_GDPS_RelativeHumidity_IsbL-0985_LatLon0.15_PT240H.grib2 2026-04-30 04:45 1.1M
20260430T00Z_MSC_GDPS_RelativeHumidity_IsbL-1000_LatLon0.15_PT240H.grib2 2026-04-30 04:45 1.1M
20260430T00Z_MSC_GDPS_RelativeHumidity_IsbL-1015_LatLon0.15_PT240H.grib2 2026-04-30 04:45 1.0M
20260430T00Z_MSC_GDPS_RelativeVorticity_IsbL-0200_LatLon0.15_PT240H.grib2 2026-04-30 04:45 1.4M
20260430T00Z_MSC_GDPS_RelativeVorticity_IsbL-0250_LatLon0.15_PT240H.grib2 2026-04-30 04:45 1.6M
20260430T00Z_MSC_GDPS_RelativeVorticity_IsbL-0500_LatLon0.15_PT240H.grib2 2026-04-30 04:45 1.5M
20260430T00Z_MSC_GDPS_RelativeVorticity_IsbL-0700_LatLon0.15_PT240H.grib2 2026-04-30 04:45 1.3M
20260430T00Z_MSC_GDPS_RelativeVorticity_IsbL-0850_LatLon0.15_PT240H.grib2 2026-04-30 04:45 1.6M
20260430T00Z_MSC_GDPS_Runoff-Accum_Sfc_LatLon0.15_PT240H.grib2 2026-04-30 04:45 143K
20260430T00Z_MSC_GDPS_SensibleHeatNetFlux_Sfc_LatLon0.15_PT240H.grib2 2026-04-30 04:45 444K
20260430T00Z_MSC_GDPS_ShowalterIndex_IsbL-0500_LatLon0.15_PT240H.grib2 2026-04-30 04:45 6.2M
20260430T00Z_MSC_GDPS_Snow-Accum12h_Sfc_LatLon0.15_PT240H.grib2 2026-04-30 04:45 1.5M
20260430T00Z_MSC_GDPS_Snow-Accum24h_Sfc_LatLon0.15_PT240H.grib2 2026-04-30 04:45 1.7M
20260430T00Z_MSC_GDPS_Snow-Accum6h_Sfc_LatLon0.15_PT240H.grib2 2026-04-30 04:45 1.4M
20260430T00Z_MSC_GDPS_Snow-Accum_Sfc_LatLon0.15_PT240H.grib2 2026-04-30 04:45 2.2M
20260430T00Z_MSC_GDPS_SnowDensity_Sfc_LatLon0.15_PT240H.grib2 2026-04-30 04:45 255K
20260430T00Z_MSC_GDPS_SnowDepth_Sfc_LatLon0.15_PT240H.grib2 2026-04-30 04:45 1.7M
20260430T00Z_MSC_GDPS_SoilTemp_DBS-0to10cm_LatLon0.15_PT240H.grib2 2026-04-30 04:45 514K
20260430T00Z_MSC_GDPS_SoilTemp_Sfc_LatLon0.15_PT240H.grib2 2026-04-30 04:45 563K
20260430T00Z_MSC_GDPS_SoilVolumetricIceContent_Sfc_LatLon0.15_PT240H.grib2 2026-04-30 04:45 177K
20260430T00Z_MSC_GDPS_SoilVolumetricWaterContent_DBS-0to10cm_LatLon0.15_PT240H.grib2 2026-04-30 04:45 595K
20260430T00Z_MSC_GDPS_SoilVolumetricWaterContent_DBS-0to1cm_LatLon0.15_PT240H.grib2 2026-04-30 04:45 651K
20260430T00Z_MSC_GDPS_SpecificHumidity_AGL-120m_LatLon0.15_PT240H.grib2 2026-04-30 04:45 1.1M
20260430T00Z_MSC_GDPS_SpecificHumidity_AGL-2m_LatLon0.15_PT240H.grib2 2026-04-30 04:45 1.2M
20260430T00Z_MSC_GDPS_SpecificHumidity_AGL-40m_LatLon0.15_PT240H.grib2 2026-04-30 04:45 1.1M
20260430T00Z_MSC_GDPS_SpecificHumidity_AGL-80m_LatLon0.15_PT240H.grib2 2026-04-30 04:45 1.1M
20260430T00Z_MSC_GDPS_SpecificHumidity_IsbL-0001_LatLon0.15_PT240H.grib2 2026-04-30 04:45 1.1M
20260430T00Z_MSC_GDPS_SpecificHumidity_IsbL-0005_LatLon0.15_PT240H.grib2 2026-04-30 04:45 1.0M
20260430T00Z_MSC_GDPS_SpecificHumidity_IsbL-0010_LatLon0.15_PT240H.grib2 2026-04-30 04:45 1.1M
20260430T00Z_MSC_GDPS_SpecificHumidity_IsbL-0020_LatLon0.15_PT240H.grib2 2026-04-30 04:45 1.1M
20260430T00Z_MSC_GDPS_SpecificHumidity_IsbL-0030_LatLon0.15_PT240H.grib2 2026-04-30 04:45 1.4M
20260430T00Z_MSC_GDPS_SpecificHumidity_IsbL-0050_LatLon0.15_PT240H.grib2 2026-04-30 04:45 1.4M
20260430T00Z_MSC_GDPS_SpecificHumidity_IsbL-0100_LatLon0.15_PT240H.grib2 2026-04-30 04:45 1.2M
20260430T00Z_MSC_GDPS_SpecificHumidity_IsbL-0150_LatLon0.15_PT240H.grib2 2026-04-30 04:45 1.3M
20260430T00Z_MSC_GDPS_SpecificHumidity_IsbL-0175_LatLon0.15_PT240H.grib2 2026-04-30 04:45 1.3M
20260430T00Z_MSC_GDPS_SpecificHumidity_IsbL-0200_LatLon0.15_PT240H.grib2 2026-04-30 04:45 1.3M
20260430T00Z_MSC_GDPS_SpecificHumidity_IsbL-0225_LatLon0.15_PT240H.grib2 2026-04-30 04:45 1.3M
20260430T00Z_MSC_GDPS_SpecificHumidity_IsbL-0250_LatLon0.15_PT240H.grib2 2026-04-30 04:45 1.4M
20260430T00Z_MSC_GDPS_SpecificHumidity_IsbL-0275_LatLon0.15_PT240H.grib2 2026-04-30 04:45 1.3M
20260430T00Z_MSC_GDPS_SpecificHumidity_IsbL-0300_LatLon0.15_PT240H.grib2 2026-04-30 04:45 1.2M
20260430T00Z_MSC_GDPS_SpecificHumidity_IsbL-0350_LatLon0.15_PT240H.grib2 2026-04-30 04:45 1.2M
20260430T00Z_MSC_GDPS_SpecificHumidity_IsbL-0400_LatLon0.15_PT240H.grib2 2026-04-30 04:45 1.5M
20260430T00Z_MSC_GDPS_SpecificHumidity_IsbL-0450_LatLon0.15_PT240H.grib2 2026-04-30 04:45 1.6M
20260430T00Z_MSC_GDPS_SpecificHumidity_IsbL-0500_LatLon0.15_PT240H.grib2 2026-04-30 04:45 1.5M
20260430T00Z_MSC_GDPS_SpecificHumidity_IsbL-0550_LatLon0.15_PT240H.grib2 2026-04-30 04:45 1.6M
20260430T00Z_MSC_GDPS_SpecificHumidity_IsbL-0600_LatLon0.15_PT240H.grib2 2026-04-30 04:45 1.8M
20260430T00Z_MSC_GDPS_SpecificHumidity_IsbL-0650_LatLon0.15_PT240H.grib2 2026-04-30 04:45 1.5M
20260430T00Z_MSC_GDPS_SpecificHumidity_IsbL-0700_LatLon0.15_PT240H.grib2 2026-04-30 04:45 1.6M
20260430T00Z_MSC_GDPS_SpecificHumidity_IsbL-0750_LatLon0.15_PT240H.grib2 2026-04-30 04:45 1.7M
20260430T00Z_MSC_GDPS_SpecificHumidity_IsbL-0800_LatLon0.15_PT240H.grib2 2026-04-30 04:45 1.9M
20260430T00Z_MSC_GDPS_SpecificHumidity_IsbL-0850_LatLon0.15_PT240H.grib2 2026-04-30 04:45 2.0M
20260430T00Z_MSC_GDPS_SpecificHumidity_IsbL-0875_LatLon0.15_PT240H.grib2 2026-04-30 04:45 2.0M
20260430T00Z_MSC_GDPS_SpecificHumidity_IsbL-0900_LatLon0.15_PT240H.grib2 2026-04-30 04:45 1.9M
20260430T00Z_MSC_GDPS_SpecificHumidity_IsbL-0925_LatLon0.15_PT240H.grib2 2026-04-30 04:45 1.6M
20260430T00Z_MSC_GDPS_SpecificHumidity_IsbL-0950_LatLon0.15_PT240H.grib2 2026-04-30 04:45 1.6M
20260430T00Z_MSC_GDPS_SpecificHumidity_IsbL-0970_LatLon0.15_PT240H.grib2 2026-04-30 04:45 1.5M
20260430T00Z_MSC_GDPS_SpecificHumidity_IsbL-0985_LatLon0.15_PT240H.grib2 2026-04-30 04:45 1.5M
20260430T00Z_MSC_GDPS_SpecificHumidity_IsbL-1000_LatLon0.15_PT240H.grib2 2026-04-30 04:45 1.5M
20260430T00Z_MSC_GDPS_SpecificHumidity_IsbL-1015_LatLon0.15_PT240H.grib2 2026-04-30 04:45 1.5M
20260430T00Z_MSC_GDPS_SpecificHumidity_Sfc_LatLon0.15_PT240H.grib2 2026-04-30 04:45 642K
20260430T00Z_MSC_GDPS_Thickness_IsbL-0850to0700_LatLon0.15_PT240H.grib2 2026-04-30 04:45 463K
20260430T00Z_MSC_GDPS_Thickness_IsbL-1000to0500_LatLon0.15_PT240H.grib2 2026-04-30 04:45 368K
20260430T00Z_MSC_GDPS_Thickness_IsbL-1000to0850_LatLon0.15_PT240H.grib2 2026-04-30 04:45 486K
20260430T00Z_MSC_GDPS_TotalCloudCover_Sfc_LatLon0.15_PT240H.grib2 2026-04-30 04:45 842K
20260430T00Z_MSC_GDPS_TotalTotalsIndex_Sfc_LatLon0.15_PT240H.grib2 2026-04-30 04:45 6.2M
20260430T00Z_MSC_GDPS_UVIndex-ClearSky_Sfc_LatLon0.15_PT240H.grib2 2026-04-30 04:52 1.0M
20260430T00Z_MSC_GDPS_UVIndex_Sfc_LatLon0.15_PT240H.grib2 2026-04-30 04:52 1.5M
20260430T00Z_MSC_GDPS_UpwardLongwaveRadiationFlux_NTAtm_LatLon0.15_PT240H.grib2 2026-04-30 04:45 830K
20260430T00Z_MSC_GDPS_VerticalVelocity_IsbL-0200_LatLon0.15_PT240H.grib2 2026-04-30 04:45 1.2M
20260430T00Z_MSC_GDPS_VerticalVelocity_IsbL-0250_LatLon0.15_PT240H.grib2 2026-04-30 04:45 1.0M
20260430T00Z_MSC_GDPS_VerticalVelocity_IsbL-0500_LatLon0.15_PT240H.grib2 2026-04-30 04:45 1.3M
20260430T00Z_MSC_GDPS_VerticalVelocity_IsbL-0600_LatLon0.15_PT240H.grib2 2026-04-30 04:45 1.3M
20260430T00Z_MSC_GDPS_VerticalVelocity_IsbL-0700_LatLon0.15_PT240H.grib2 2026-04-30 04:45 1.4M
20260430T00Z_MSC_GDPS_VerticalVelocity_IsbL-0850_LatLon0.15_PT240H.grib2 2026-04-30 04:45 1.6M
20260430T00Z_MSC_GDPS_WindChill_Sfc_LatLon0.15_PT240H.grib2 2026-04-30 04:45 5.3M
20260430T00Z_MSC_GDPS_WindDir_AGL-10m_LatLon0.15_PT240H.grib2 2026-04-30 04:45 1.3M
20260430T00Z_MSC_GDPS_WindDir_AGL-120m_LatLon0.15_PT240H.grib2 2026-04-30 04:45 1.3M
20260430T00Z_MSC_GDPS_WindDir_AGL-40m_LatLon0.15_PT240H.grib2 2026-04-30 04:45 1.4M
20260430T00Z_MSC_GDPS_WindDir_AGL-80m_LatLon0.15_PT240H.grib2 2026-04-30 04:45 1.4M
20260430T00Z_MSC_GDPS_WindDir_IsbL-0001_LatLon0.15_PT240H.grib2 2026-04-30 04:45 666K
20260430T00Z_MSC_GDPS_WindDir_IsbL-0005_LatLon0.15_PT240H.grib2 2026-04-30 04:45 806K
20260430T00Z_MSC_GDPS_WindDir_IsbL-0010_LatLon0.15_PT240H.grib2 2026-04-30 04:45 834K
20260430T00Z_MSC_GDPS_WindDir_IsbL-0020_LatLon0.15_PT240H.grib2 2026-04-30 04:45 945K
20260430T00Z_MSC_GDPS_WindDir_IsbL-0030_LatLon0.15_PT240H.grib2 2026-04-30 04:45 950K
20260430T00Z_MSC_GDPS_WindDir_IsbL-0050_LatLon0.15_PT240H.grib2 2026-04-30 04:45 929K
20260430T00Z_MSC_GDPS_WindDir_IsbL-0100_LatLon0.15_PT240H.grib2 2026-04-30 04:45 1.0M
20260430T00Z_MSC_GDPS_WindDir_IsbL-0150_LatLon0.15_PT240H.grib2 2026-04-30 04:45 1.0M
20260430T00Z_MSC_GDPS_WindDir_IsbL-0175_LatLon0.15_PT240H.grib2 2026-04-30 04:45 1.0M
20260430T00Z_MSC_GDPS_WindDir_IsbL-0200_LatLon0.15_PT240H.grib2 2026-04-30 04:45 1.1M
20260430T00Z_MSC_GDPS_WindDir_IsbL-0225_LatLon0.15_PT240H.grib2 2026-04-30 04:45 1.1M
20260430T00Z_MSC_GDPS_WindDir_IsbL-0250_LatLon0.15_PT240H.grib2 2026-04-30 04:45 1.1M
20260430T00Z_MSC_GDPS_WindDir_IsbL-0275_LatLon0.15_PT240H.grib2 2026-04-30 04:45 1.2M
20260430T00Z_MSC_GDPS_WindDir_IsbL-0300_LatLon0.15_PT240H.grib2 2026-04-30 04:45 1.2M
20260430T00Z_MSC_GDPS_WindDir_IsbL-0350_LatLon0.15_PT240H.grib2 2026-04-30 04:45 1.2M
20260430T00Z_MSC_GDPS_WindDir_IsbL-0400_LatLon0.15_PT240H.grib2 2026-04-30 04:45 1.3M
20260430T00Z_MSC_GDPS_WindDir_IsbL-0450_LatLon0.15_PT240H.grib2 2026-04-30 04:45 1.3M
20260430T00Z_MSC_GDPS_WindDir_IsbL-0500_LatLon0.15_PT240H.grib2 2026-04-30 04:45 1.4M
20260430T00Z_MSC_GDPS_WindDir_IsbL-0550_LatLon0.15_PT240H.grib2 2026-04-30 04:45 1.4M
20260430T00Z_MSC_GDPS_WindDir_IsbL-0600_LatLon0.15_PT240H.grib2 2026-04-30 04:45 1.4M
20260430T00Z_MSC_GDPS_WindDir_IsbL-0650_LatLon0.15_PT240H.grib2 2026-04-30 04:45 1.5M
20260430T00Z_MSC_GDPS_WindDir_IsbL-0700_LatLon0.15_PT240H.grib2 2026-04-30 04:45 1.6M
20260430T00Z_MSC_GDPS_WindDir_IsbL-0750_LatLon0.15_PT240H.grib2 2026-04-30 04:45 1.7M
20260430T00Z_MSC_GDPS_WindDir_IsbL-0800_LatLon0.15_PT240H.grib2 2026-04-30 04:45 1.8M
20260430T00Z_MSC_GDPS_WindDir_IsbL-0850_LatLon0.15_PT240H.grib2 2026-04-30 04:45 1.9M
20260430T00Z_MSC_GDPS_WindDir_IsbL-0875_LatLon0.15_PT240H.grib2 2026-04-30 04:45 1.9M
20260430T00Z_MSC_GDPS_WindDir_IsbL-0900_LatLon0.15_PT240H.grib2 2026-04-30 04:45 1.9M
20260430T00Z_MSC_GDPS_WindDir_IsbL-0925_LatLon0.15_PT240H.grib2 2026-04-30 04:45 2.0M
20260430T00Z_MSC_GDPS_WindDir_IsbL-0950_LatLon0.15_PT240H.grib2 2026-04-30 04:45 2.0M
20260430T00Z_MSC_GDPS_WindDir_IsbL-0970_LatLon0.15_PT240H.grib2 2026-04-30 04:45 2.0M
20260430T00Z_MSC_GDPS_WindDir_IsbL-0985_LatLon0.15_PT240H.grib2 2026-04-30 04:45 2.0M
20260430T00Z_MSC_GDPS_WindDir_IsbL-1000_LatLon0.15_PT240H.grib2 2026-04-30 04:45 2.0M
20260430T00Z_MSC_GDPS_WindDir_IsbL-1015_LatLon0.15_PT240H.grib2 2026-04-30 04:45 2.0M
20260430T00Z_MSC_GDPS_WindGust-Max_AGL-10m_LatLon0.15_PT240H.grib2 2026-04-30 04:45 2.2M
20260430T00Z_MSC_GDPS_WindGust-Min_AGL-10m_LatLon0.15_PT240H.grib2 2026-04-30 04:45 2.2M
20260430T00Z_MSC_GDPS_WindGust_AGL-10m_LatLon0.15_PT240H.grib2 2026-04-30 04:45 2.2M
20260430T00Z_MSC_GDPS_WindSpeed_AGL-10m_LatLon0.15_PT240H.grib2 2026-04-30 04:45 1.1M
20260430T00Z_MSC_GDPS_WindSpeed_AGL-120m_LatLon0.15_PT240H.grib2 2026-04-30 04:45 1.3M
20260430T00Z_MSC_GDPS_WindSpeed_AGL-40m_LatLon0.15_PT240H.grib2 2026-04-30 04:45 1.2M
20260430T00Z_MSC_GDPS_WindSpeed_AGL-80m_LatLon0.15_PT240H.grib2 2026-04-30 04:45 1.2M
20260430T00Z_MSC_GDPS_WindSpeed_IsbL-0001_LatLon0.15_PT240H.grib2 2026-04-30 04:45 649K
20260430T00Z_MSC_GDPS_WindSpeed_IsbL-0005_LatLon0.15_PT240H.grib2 2026-04-30 04:45 686K
20260430T00Z_MSC_GDPS_WindSpeed_IsbL-0010_LatLon0.15_PT240H.grib2 2026-04-30 04:45 619K
20260430T00Z_MSC_GDPS_WindSpeed_IsbL-0020_LatLon0.15_PT240H.grib2 2026-04-30 04:45 653K
20260430T00Z_MSC_GDPS_WindSpeed_IsbL-0030_LatLon0.15_PT240H.grib2 2026-04-30 04:45 851K
20260430T00Z_MSC_GDPS_WindSpeed_IsbL-0050_LatLon0.15_PT240H.grib2 2026-04-30 04:45 968K
20260430T00Z_MSC_GDPS_WindSpeed_IsbL-0100_LatLon0.15_PT240H.grib2 2026-04-30 04:45 1.1M
20260430T00Z_MSC_GDPS_WindSpeed_IsbL-0150_LatLon0.15_PT240H.grib2 2026-04-30 04:45 1.0M
20260430T00Z_MSC_GDPS_WindSpeed_IsbL-0175_LatLon0.15_PT240H.grib2 2026-04-30 04:45 1.0M
20260430T00Z_MSC_GDPS_WindSpeed_IsbL-0200_LatLon0.15_PT240H.grib2 2026-04-30 04:45 1.0M
20260430T00Z_MSC_GDPS_WindSpeed_IsbL-0225_LatLon0.15_PT240H.grib2 2026-04-30 04:45 1.1M
20260430T00Z_MSC_GDPS_WindSpeed_IsbL-0250_LatLon0.15_PT240H.grib2 2026-04-30 04:45 1.1M
20260430T00Z_MSC_GDPS_WindSpeed_IsbL-0275_LatLon0.15_PT240H.grib2 2026-04-30 04:45 1.1M
20260430T00Z_MSC_GDPS_WindSpeed_IsbL-0300_LatLon0.15_PT240H.grib2 2026-04-30 04:45 1.1M
20260430T00Z_MSC_GDPS_WindSpeed_IsbL-0350_LatLon0.15_PT240H.grib2 2026-04-30 04:45 1.1M
20260430T00Z_MSC_GDPS_WindSpeed_IsbL-0400_LatLon0.15_PT240H.grib2 2026-04-30 04:45 1.1M
20260430T00Z_MSC_GDPS_WindSpeed_IsbL-0450_LatLon0.15_PT240H.grib2 2026-04-30 04:45 1.1M
20260430T00Z_MSC_GDPS_WindSpeed_IsbL-0500_LatLon0.15_PT240H.grib2 2026-04-30 04:45 1.1M
20260430T00Z_MSC_GDPS_WindSpeed_IsbL-0550_LatLon0.15_PT240H.grib2 2026-04-30 04:45 1.1M
20260430T00Z_MSC_GDPS_WindSpeed_IsbL-0600_LatLon0.15_PT240H.grib2 2026-04-30 04:45 1.4M
20260430T00Z_MSC_GDPS_WindSpeed_IsbL-0650_LatLon0.15_PT240H.grib2 2026-04-30 04:45 1.4M
20260430T00Z_MSC_GDPS_WindSpeed_IsbL-0700_LatLon0.15_PT240H.grib2 2026-04-30 04:45 1.5M
20260430T00Z_MSC_GDPS_WindSpeed_IsbL-0750_LatLon0.15_PT240H.grib2 2026-04-30 04:45 1.6M
20260430T00Z_MSC_GDPS_WindSpeed_IsbL-0800_LatLon0.15_PT240H.grib2 2026-04-30 04:45 1.6M
20260430T00Z_MSC_GDPS_WindSpeed_IsbL-0850_LatLon0.15_PT240H.grib2 2026-04-30 04:45 1.7M
20260430T00Z_MSC_GDPS_WindSpeed_IsbL-0875_LatLon0.15_PT240H.grib2 2026-04-30 04:45 1.8M
20260430T00Z_MSC_GDPS_WindSpeed_IsbL-0900_LatLon0.15_PT240H.grib2 2026-04-30 04:45 1.9M
20260430T00Z_MSC_GDPS_WindSpeed_IsbL-0925_LatLon0.15_PT240H.grib2 2026-04-30 04:45 1.9M
20260430T00Z_MSC_GDPS_WindSpeed_IsbL-0950_LatLon0.15_PT240H.grib2 2026-04-30 04:45 1.9M
20260430T00Z_MSC_GDPS_WindSpeed_IsbL-0970_LatLon0.15_PT240H.grib2 2026-04-30 04:45 1.9M
20260430T00Z_MSC_GDPS_WindSpeed_IsbL-0985_LatLon0.15_PT240H.grib2 2026-04-30 04:45 1.8M
20260430T00Z_MSC_GDPS_WindSpeed_IsbL-1000_LatLon0.15_PT240H.grib2 2026-04-30 04:45 1.8M
20260430T00Z_MSC_GDPS_WindSpeed_IsbL-1015_LatLon0.15_PT240H.grib2 2026-04-30 04:45 1.8M
20260430T00Z_MSC_GDPS_WindU_AGL-10m_LatLon0.15_PT240H.grib2 2026-04-30 04:45 1.6M
20260430T00Z_MSC_GDPS_WindU_AGL-120m_LatLon0.15_PT240H.grib2 2026-04-30 04:45 1.0M
20260430T00Z_MSC_GDPS_WindU_AGL-40m_LatLon0.15_PT240H.grib2 2026-04-30 04:45 966K
20260430T00Z_MSC_GDPS_WindU_AGL-80m_LatLon0.15_PT240H.grib2 2026-04-30 04:45 973K
20260430T00Z_MSC_GDPS_WindU_IsbL-0001_LatLon0.15_PT240H.grib2 2026-04-30 04:45 501K
20260430T00Z_MSC_GDPS_WindU_IsbL-0005_LatLon0.15_PT240H.grib2 2026-04-30 04:45 685K
20260430T00Z_MSC_GDPS_WindU_IsbL-0010_LatLon0.15_PT240H.grib2 2026-04-30 04:45 694K
20260430T00Z_MSC_GDPS_WindU_IsbL-0020_LatLon0.15_PT240H.grib2 2026-04-30 04:45 721K
20260430T00Z_MSC_GDPS_WindU_IsbL-0030_LatLon0.15_PT240H.grib2 2026-04-30 04:45 731K
20260430T00Z_MSC_GDPS_WindU_IsbL-0050_LatLon0.15_PT240H.grib2 2026-04-30 04:45 686K
20260430T00Z_MSC_GDPS_WindU_IsbL-0100_LatLon0.15_PT240H.grib2 2026-04-30 04:45 860K
20260430T00Z_MSC_GDPS_WindU_IsbL-0150_LatLon0.15_PT240H.grib2 2026-04-30 04:45 1.0M
20260430T00Z_MSC_GDPS_WindU_IsbL-0175_LatLon0.15_PT240H.grib2 2026-04-30 04:45 1.0M
20260430T00Z_MSC_GDPS_WindU_IsbL-0200_LatLon0.15_PT240H.grib2 2026-04-30 04:45 837K
20260430T00Z_MSC_GDPS_WindU_IsbL-0225_LatLon0.15_PT240H.grib2 2026-04-30 04:45 845K
20260430T00Z_MSC_GDPS_WindU_IsbL-0250_LatLon0.15_PT240H.grib2 2026-04-30 04:45 849K
20260430T00Z_MSC_GDPS_WindU_IsbL-0275_LatLon0.15_PT240H.grib2 2026-04-30 04:45 876K
20260430T00Z_MSC_GDPS_WindU_IsbL-0300_LatLon0.15_PT240H.grib2 2026-04-30 04:45 869K
20260430T00Z_MSC_GDPS_WindU_IsbL-0350_LatLon0.15_PT240H.grib2 2026-04-30 04:45 886K
20260430T00Z_MSC_GDPS_WindU_IsbL-0400_LatLon0.15_PT240H.grib2 2026-04-30 04:45 889K
20260430T00Z_MSC_GDPS_WindU_IsbL-0450_LatLon0.15_PT240H.grib2 2026-04-30 04:45 1.1M
20260430T00Z_MSC_GDPS_WindU_IsbL-0500_LatLon0.15_PT240H.grib2 2026-04-30 04:45 1.1M
20260430T00Z_MSC_GDPS_WindU_IsbL-0550_LatLon0.15_PT240H.grib2 2026-04-30 04:45 1.1M
20260430T00Z_MSC_GDPS_WindU_IsbL-0600_LatLon0.15_PT240H.grib2 2026-04-30 04:45 1.1M
20260430T00Z_MSC_GDPS_WindU_IsbL-0650_LatLon0.15_PT240H.grib2 2026-04-30 04:45 1.2M
20260430T00Z_MSC_GDPS_WindU_IsbL-0700_LatLon0.15_PT240H.grib2 2026-04-30 04:45 1.2M
20260430T00Z_MSC_GDPS_WindU_IsbL-0750_LatLon0.15_PT240H.grib2 2026-04-30 04:45 1.3M
20260430T00Z_MSC_GDPS_WindU_IsbL-0800_LatLon0.15_PT240H.grib2 2026-04-30 04:45 1.3M
20260430T00Z_MSC_GDPS_WindU_IsbL-0850_LatLon0.15_PT240H.grib2 2026-04-30 04:45 1.4M
20260430T00Z_MSC_GDPS_WindU_IsbL-0875_LatLon0.15_PT240H.grib2 2026-04-30 04:45 1.5M
20260430T00Z_MSC_GDPS_WindU_IsbL-0900_LatLon0.15_PT240H.grib2 2026-04-30 04:45 1.5M
20260430T00Z_MSC_GDPS_WindU_IsbL-0925_LatLon0.15_PT240H.grib2 2026-04-30 04:45 1.5M
20260430T00Z_MSC_GDPS_WindU_IsbL-0950_LatLon0.15_PT240H.grib2 2026-04-30 04:45 1.4M
20260430T00Z_MSC_GDPS_WindU_IsbL-0970_LatLon0.15_PT240H.grib2 2026-04-30 04:45 1.4M
20260430T00Z_MSC_GDPS_WindU_IsbL-0985_LatLon0.15_PT240H.grib2 2026-04-30 04:45 1.4M
20260430T00Z_MSC_GDPS_WindU_IsbL-1000_LatLon0.15_PT240H.grib2 2026-04-30 04:45 1.7M
20260430T00Z_MSC_GDPS_WindU_IsbL-1015_LatLon0.15_PT240H.grib2 2026-04-30 04:45 1.6M
20260430T00Z_MSC_GDPS_WindV_AGL-10m_LatLon0.15_PT240H.grib2 2026-04-30 04:45 1.6M
20260430T00Z_MSC_GDPS_WindV_AGL-120m_LatLon0.15_PT240H.grib2 2026-04-30 04:45 1.0M
20260430T00Z_MSC_GDPS_WindV_AGL-40m_LatLon0.15_PT240H.grib2 2026-04-30 04:45 970K
20260430T00Z_MSC_GDPS_WindV_AGL-80m_LatLon0.15_PT240H.grib2 2026-04-30 04:45 1.0M
20260430T00Z_MSC_GDPS_WindV_IsbL-0001_LatLon0.15_PT240H.grib2 2026-04-30 04:45 684K
20260430T00Z_MSC_GDPS_WindV_IsbL-0005_LatLon0.15_PT240H.grib2 2026-04-30 04:45 762K
20260430T00Z_MSC_GDPS_WindV_IsbL-0010_LatLon0.15_PT240H.grib2 2026-04-30 04:45 787K
20260430T00Z_MSC_GDPS_WindV_IsbL-0020_LatLon0.15_PT240H.grib2 2026-04-30 04:45 839K
20260430T00Z_MSC_GDPS_WindV_IsbL-0030_LatLon0.15_PT240H.grib2 2026-04-30 04:45 930K
20260430T00Z_MSC_GDPS_WindV_IsbL-0050_LatLon0.15_PT240H.grib2 2026-04-30 04:45 1.0M
20260430T00Z_MSC_GDPS_WindV_IsbL-0100_LatLon0.15_PT240H.grib2 2026-04-30 04:45 1.1M
20260430T00Z_MSC_GDPS_WindV_IsbL-0150_LatLon0.15_PT240H.grib2 2026-04-30 04:45 1.0M
20260430T00Z_MSC_GDPS_WindV_IsbL-0175_LatLon0.15_PT240H.grib2 2026-04-30 04:45 1.0M
20260430T00Z_MSC_GDPS_WindV_IsbL-0200_LatLon0.15_PT240H.grib2 2026-04-30 04:45 833K
20260430T00Z_MSC_GDPS_WindV_IsbL-0225_LatLon0.15_PT240H.grib2 2026-04-30 04:45 842K
20260430T00Z_MSC_GDPS_WindV_IsbL-0250_LatLon0.15_PT240H.grib2 2026-04-30 04:45 842K
20260430T00Z_MSC_GDPS_WindV_IsbL-0275_LatLon0.15_PT240H.grib2 2026-04-30 04:45 869K
20260430T00Z_MSC_GDPS_WindV_IsbL-0300_LatLon0.15_PT240H.grib2 2026-04-30 04:45 861K
20260430T00Z_MSC_GDPS_WindV_IsbL-0350_LatLon0.15_PT240H.grib2 2026-04-30 04:45 878K
20260430T00Z_MSC_GDPS_WindV_IsbL-0400_LatLon0.15_PT240H.grib2 2026-04-30 04:45 1.1M
20260430T00Z_MSC_GDPS_WindV_IsbL-0450_LatLon0.15_PT240H.grib2 2026-04-30 04:45 1.1M
20260430T00Z_MSC_GDPS_WindV_IsbL-0500_LatLon0.15_PT240H.grib2 2026-04-30 04:45 1.1M
20260430T00Z_MSC_GDPS_WindV_IsbL-0550_LatLon0.15_PT240H.grib2 2026-04-30 04:45 1.1M
20260430T00Z_MSC_GDPS_WindV_IsbL-0600_LatLon0.15_PT240H.grib2 2026-04-30 04:45 1.1M
20260430T00Z_MSC_GDPS_WindV_IsbL-0650_LatLon0.15_PT240H.grib2 2026-04-30 04:45 1.2M
20260430T00Z_MSC_GDPS_WindV_IsbL-0700_LatLon0.15_PT240H.grib2 2026-04-30 04:45 1.2M
20260430T00Z_MSC_GDPS_WindV_IsbL-0750_LatLon0.15_PT240H.grib2 2026-04-30 04:45 1.3M
20260430T00Z_MSC_GDPS_WindV_IsbL-0800_LatLon0.15_PT240H.grib2 2026-04-30 04:45 1.3M
20260430T00Z_MSC_GDPS_WindV_IsbL-0850_LatLon0.15_PT240H.grib2 2026-04-30 04:45 1.4M
20260430T00Z_MSC_GDPS_WindV_IsbL-0875_LatLon0.15_PT240H.grib2 2026-04-30 04:45 1.4M
20260430T00Z_MSC_GDPS_WindV_IsbL-0900_LatLon0.15_PT240H.grib2 2026-04-30 04:45 1.5M
20260430T00Z_MSC_GDPS_WindV_IsbL-0925_LatLon0.15_PT240H.grib2 2026-04-30 04:45 1.5M
20260430T00Z_MSC_GDPS_WindV_IsbL-0950_LatLon0.15_PT240H.grib2 2026-04-30 04:45 1.4M
20260430T00Z_MSC_GDPS_WindV_IsbL-0970_LatLon0.15_PT240H.grib2 2026-04-30 04:45 1.4M
20260430T00Z_MSC_GDPS_WindV_IsbL-0985_LatLon0.15_PT240H.grib2 2026-04-30 04:45 1.4M
20260430T00Z_MSC_GDPS_WindV_IsbL-1000_LatLon0.15_PT240H.grib2 2026-04-30 04:45 1.4M
20260430T00Z_MSC_GDPS_WindV_IsbL-1015_LatLon0.15_PT240H.grib2 2026-04-30 04:45 1.3M